Herbert Island, British Columbia

3:24 PM PDT on April 25, 2018 (GMT -0700)
Herbert Island

Weather History for CWLP - December, 2012

Change the Weather History Date:

Saturday, December 29, 2012

  Actual Average Record
Temperature  
Mean Temperature 42 °F -  
Max Temperature 44 °F - - ()
Min Temperature 39 °F - - ()
Degree Days  
Heating Degree Days 24    
Moisture  
Dew Point 38 °F    
Average Humidity 87    
Maximum Humidity 94    
Minimum Humidity 77    
Precipitation  
Precipitation 0.02 in - - ()
Sea Level Pressure  
Sea Level Pressure 30.19 in    
Wind  
Wind Speed 8 mph ()    
Max Wind Speed 15 mph    
Max Gust Speed -    
T = Trace of Precipitation, MM = Missing Value Source: Averaged Metar Reports

Daily Weather History Graph

Daily Weather History Graph

Search for Another Location

Airport or City:

Astronomy

Dec. 29, 2012 Rise Set
Actual Time 8:33 AM PST 4:32 PM PST
Civil Twilight 7:54 AM PST 5:11 PM PST
Nautical Twilight 7:11 AM PST 5:54 PM PST
Astronomical Twilight 6:31 AM PST 6:34 PM PST
Moon 6:24 PM PST (12/29) 8:59 AM PST (12/29)
Length of Visible Light 9h 17m
Length of Day
7h 59m
Full, 98% of the Moon is Illuminated
Dec 29
Full
Jan 4
Last Quarter
Jan 11
New
Jan 18
First Quarter
Jan 26
Full

Hourly Weather History & Observations

Time (PST) Temp. Windchill Dew Point Humidity Pressure Visibility Wind Dir Wind Speed Gust Speed Precip Events Conditions
12:00 AM 41.2 °F 33.7 °F 39.4 °F 93% 30.15 in - SE 13.8 mph - N/A   Unknown
1:00 AM 41.4 °F 34.3 °F 39.6 °F 93% 30.16 in - SE 12.7 mph - N/A   Unknown
2:00 AM 41.4 °F 33.6 °F 39.4 °F 93% 30.17 in - SE 15.0 mph - 0.02 in   Unknown
3:00 AM 41.4 °F 34.7 °F 39.4 °F 93% 30.18 in - SE 11.5 mph - N/A   Unknown
4:00 AM 41 °F - 39 °F 91% 30.18 in - SE 12.7 mph - -  
4:00 AM 40.8 °F 33.7 °F 39.2 °F 94% 30.18 in - SE 12.7 mph - N/A   Unknown
5:00 AM 41.0 °F 34.7 °F 39.0 °F 93% 30.17 in - SE 10.4 mph - N/A   Unknown
6:00 AM 41.2 °F 35.5 °F 38.8 °F 91% 30.17 in - SE 9.2 mph - N/A   Unknown
7:00 AM 41.4 °F 37.6 °F 38.7 °F 90% 30.19 in - SE 5.8 mph - N/A   Unknown
8:00 AM 41.5 °F 36.4 °F 39.0 °F 91% 30.19 in - East 8.1 mph - N/A   Unknown
9:00 AM 41.0 °F 37.1 °F 38.7 °F 91% 30.22 in - ENE 5.8 mph - N/A   Unknown
10:00 AM 41 °F - 38 °F 85% 30.22 in - ESE 3.5 mph - -  
10:00 AM 41.0 °F 39.0 °F 37.9 °F 89% 30.22 in - ESE 3.5 mph - N/A   Unknown
11:00 AM 41.5 °F 37.8 °F 36.3 °F 82% 30.20 in - ENE 5.8 mph - N/A   Unknown
12:00 PM 41.9 °F 40.0 °F 35.8 °F 79% 30.19 in - East 3.5 mph - N/A   Unknown
1:00 PM 44.2 °F - 37.4 °F 77% 30.20 in - West 1.2 mph - N/A   Unknown
2:00 PM 41.5 °F 36.4 °F 36.9 °F 83% 30.20 in - NNW 8.1 mph - N/A   Unknown
3:00 PM 40.8 °F 37.8 °F 36.5 °F 85% 30.19 in - NE 4.6 mph - N/A   Unknown
4:00 PM 41 °F - 36 °F 78% 30.19 in - Calm Calm - -  
4:00 PM 40.8 °F - 36.5 °F 85% 30.19 in - Calm Calm - N/A   Unknown
5:00 PM 41.0 °F - 36.3 °F 83% 30.19 in - Calm Calm - N/A   Unknown
6:00 PM 40.3 °F 33.9 °F 35.8 °F 84% 30.19 in - East 10.4 mph - N/A   Unknown
7:00 PM 39.7 °F 34.9 °F 35.1 °F 83% 30.20 in - East 6.9 mph - N/A   Unknown
8:00 PM 40.3 °F 33.4 °F 36.0 °F 85% 30.19 in - SE 11.5 mph - N/A   Unknown
9:00 PM 41.0 °F 33.9 °F 36.3 °F 83% 30.20 in - SE 12.7 mph - N/A   Unknown
10:00 PM 41 °F - 37 °F 80% 30.20 in - ESE 11.5 mph - -  
10:00 PM 41.4 °F 34.7 °F 36.9 °F 84% 30.20 in - ESE 11.5 mph - N/A   Unknown
11:00 PM 40.8 °F 33.3 °F 36.5 °F 85% 30.20 in - ESE 13.8 mph - N/A   Unknown